Dallas, TX

12:27 AM CST on February 23, 2017 (GMT -0600)
Redbird

Weather History for KRBD - January, 2013

Change the Weather History Date:

Thursday, January 10, 2013

  Actual Average Record
Temperature  
Mean Temperature 52 °F -  
Max Temperature 57 °F 54 °F 78 °F (2017)
Min Temperature 48 °F 36 °F 25 °F (1999)
Degree Days  
Heating Degree Days 12    
Growing Degree Days 2 (Base 50)    
Moisture  
Dew Point 51 °F    
Average Humidity 86    
Maximum Humidity 100    
Minimum Humidity 64    
Precipitation  
Precipitation 0.06 in - - ()
Sea Level Pressure  
Sea Level Pressure 29.94 in    
Wind  
Wind Speed 8 mph (South)    
Max Wind Speed 17 mph    
Max Gust Speed 23 mph    
Visibility 6 miles    
Events Fog , Rain    
Averages and records for this station are not official NWS values.
T = Trace of Precipitation, MM = Missing Value Source: NWS Daily Summary

Daily Weather History Graph

Daily Weather History Graph

Search for Another Location

Airport or City:

Trip Planner

Search our weather history database for the weather conditions in past years. The results will help you decide how hot, cold, wet, or windy it might be!

Date:

Astronomy

Jan. 10, 2013 Rise Set
Actual Time 7:30 AM CST 5:40 PM CST
Civil Twilight 7:03 AM CST 6:07 PM CST
Nautical Twilight 6:33 AM CST 6:37 PM CST
Astronomical Twilight 6:03 AM CST 7:07 PM CST
Moon 6:11 AM CST (1/10) 4:48 PM CST (1/10)
Length of Visible Light 11h 03m
Length of Day
10h 09m
Waning Crescent, 2% of the Moon is Illuminated
Jan 10
Waning Crescent
Jan 11
New
Jan 18
First Quarter
Jan 26
Full
Feb 3
Last Quarter

Hourly Weather History & Observations

Time (CST) Temp. Dew Point Humidity Pressure Visibility Wind Dir Wind Speed Gust Speed Precip Events Conditions
12:25 AM 55.4 °F 55.4 °F 100% 29.98 in 2.0 mi East 10.4 mph - 0.01 in   Overcast
12:53 AM 55.9 °F 55.0 °F 97% 29.99 in 3.0 mi East 9.2 mph - 0.01 in Rain Light Rain
1:01 AM 55.4 °F 55.4 °F 100% 29.98 in 2.5 mi East 12.7 mph - 0.01 in Rain Light Rain
1:17 AM 55.4 °F 55.4 °F 100% 29.97 in 3.0 mi East 11.5 mph - 0.01 in Rain Light Rain
1:53 AM 55.9 °F 55.0 °F 97% 29.95 in 2.5 mi ESE 11.5 mph - 0.02 in Rain Light Rain
2:11 AM 55.4 °F 55.4 °F 100% 29.95 in 3.0 mi East 11.5 mph - 0.00 in Rain Light Rain
2:22 AM 55.4 °F 55.4 °F 100% 29.96 in 2.5 mi ESE 6.9 mph - 0.00 in Rain Light Rain
2:30 AM 55.4 °F 55.4 °F 100% 29.96 in 3.0 mi SE 5.8 mph - 0.01 in Rain Light Rain
2:40 AM 57.2 °F 55.4 °F 94% 29.96 in 2.5 mi East 8.1 mph - 0.01 in Rain Light Rain
2:53 AM 57.0 °F 55.0 °F 93% 29.95 in 3.0 mi ESE 4.6 mph - 0.02 in Rain Light Rain
3:17 AM 57.2 °F 55.4 °F 94% 29.96 in 2.0 mi SE 5.8 mph - 0.01 in Rain Light Rain
3:38 AM 57.2 °F 55.4 °F 94% 29.94 in 3.0 mi East 3.5 mph - 0.01 in Rain Light Rain
3:53 AM 57.0 °F 55.0 °F 93% 29.94 in 7.0 mi SE 4.6 mph - 0.01 in   Overcast
4:15 AM 57.2 °F 55.4 °F 94% 29.95 in 1.8 mi South 4.6 mph - N/A   Overcast
4:24 AM 57.2 °F 55.4 °F 94% 29.94 in 0.5 mi South 4.6 mph - N/A Fog Fog
4:36 AM 57.2 °F 55.4 °F 94% 29.93 in 1.0 mi South 4.6 mph - N/A   Mist
4:43 AM 57.2 °F 55.4 °F 94% 29.93 in 0.5 mi SSE 5.8 mph - N/A Fog Fog
4:53 AM 57.0 °F 55.9 °F 96% 29.92 in 0.5 mi South 4.6 mph - N/A Fog Fog
5:21 AM 57.2 °F 55.4 °F 94% 29.93 in 1.0 mi South 5.8 mph - N/A   Overcast
5:26 AM 57.2 °F 55.4 °F 94% 29.92 in 3.0 mi South 4.6 mph - N/A   Overcast
5:53 AM 57.0 °F 55.0 °F 93% 29.91 in 7.0 mi Variable 4.6 mph - N/A   Overcast
6:02 AM 57.2 °F 55.4 °F 94% 29.92 in 7.0 mi South 6.9 mph - N/A   Overcast
6:16 AM 55.4 °F 55.4 °F 100% 29.92 in 8.0 mi South 6.9 mph - N/A   Overcast
6:53 AM 55.9 °F 54.0 °F 93% 29.93 in 9.0 mi Variable 4.6 mph - N/A   Overcast
7:06 AM 55.4 °F 53.6 °F 94% 29.94 in 10.0 mi Variable 5.8 mph - N/A   Overcast
7:53 AM 54.0 °F 51.1 °F 90% 29.95 in 10.0 mi Variable 3.5 mph - N/A   Overcast
8:50 AM 53.6 °F 50.0 °F 88% 29.95 in 10.0 mi SSW 5.8 mph - N/A   Scattered Clouds
8:53 AM 54.0 °F 50.0 °F 86% 29.94 in 10.0 mi SSW 4.6 mph - N/A   Scattered Clouds
9:53 AM 55.9 °F 48.9 °F 77% 29.94 in 10.0 mi SW 6.9 mph - N/A   Scattered Clouds
10:02 AM 57.2 °F 48.2 °F 72% 29.96 in 10.0 mi SW 10.4 mph - N/A   Mostly Cloudy
10:53 AM 57.0 °F 48.0 °F 72% 29.95 in 10.0 mi Variable 6.9 mph - N/A   Mostly Cloudy
11:53 AM 57.0 °F 46.0 °F 67% 29.94 in 10.0 mi SSW 8.1 mph 17.3 mph N/A   Scattered Clouds
12:31 PM 55.4 °F 44.6 °F 67% 29.93 in 10.0 mi WSW 17.3 mph 23.0 mph N/A   Overcast
12:38 PM 55.4 °F 44.6 °F 67% 29.93 in 10.0 mi SW 11.5 mph 23.0 mph N/A   Overcast
12:53 PM 55.9 °F 44.1 °F 64% 29.92 in 10.0 mi SSW 10.4 mph 20.7 mph N/A   Overcast
1:37 PM 55.4 °F 44.6 °F 67% 29.92 in 10.0 mi SW 4.6 mph - N/A   Mostly Cloudy
1:53 PM 55.9 °F 44.1 °F 64% 29.92 in 10.0 mi Variable 6.9 mph - N/A   Overcast
2:53 PM 54.0 °F 44.1 °F 69% 29.93 in 10.0 mi South 9.2 mph 18.4 mph N/A   Overcast
3:53 PM 54.0 °F 43.0 °F 66% 29.94 in 10.0 mi South 9.2 mph 17.3 mph N/A   Overcast
4:53 PM 54.0 °F 44.1 °F 69% 29.95 in 10.0 mi SSW 6.9 mph 16.1 mph N/A   Overcast
5:53 PM 53.1 °F 44.1 °F 71% 29.95 in 10.0 mi Variable 4.6 mph - N/A   Scattered Clouds
6:53 PM 51.1 °F 44.1 °F 77% 29.95 in 10.0 mi South 4.6 mph - N/A   Scattered Clouds
7:53 PM 48.9 °F 44.1 °F 83% 29.94 in 10.0 mi South 5.8 mph - N/A   Clear
8:53 PM 51.1 °F 44.1 °F 77% 29.96 in 10.0 mi SSW 8.1 mph - N/A   Clear
9:53 PM 50.0 °F 44.1 °F 80% 29.95 in 10.0 mi South 4.6 mph - N/A   Clear
11:53 PM 50.0 °F 44.1 °F 80% 29.95 in 10.0 mi Variable 5.8 mph - N/A   Clear